Regional Weather Roundup
Issued by NWS New Orleans/Baton Rouge, LA

Home | Current Version | Previous Version | Text Only | Print | Product List | Glossary On
Versions: 1 2 3 4 5 6 7 8 9 10 11 12 13 14 15 16 17 18 19 20 21 22 23 24 25 26 27 28 29 30 31 32 33 34 35 36 37 38 39 40 41 42 43 44 45 46 47 48 49 50
604
ASUS44 KLIX 211001
RWRLIX
NEW ORLEANS REGIONAL WEATHER ROUNDUP
NATIONAL WEATHER SERVICE NEW ORLEANS LA
400 AM CST SUN DEC 21 2014

NOTE: "FAIR" INDICATES FEW OR NO CLOUDS BELOW 12,000 FEET WITH NO
      SIGNIFICANT WEATHER AND/OR OBSTRUCTIONS TO VISIBILITY.
      SKY/WX - SKY CONDITION AND SIGNIFICANT WEATHER.
      TMP - AIR TEMPERATURE.     DP    - DEWPOINT TEMPERATURE.
      RH  - RELATIVE HUMIDITY.   PRES  - PRESSURE.
      HI  - HEAT INDEX.          WCI   - WIND CHILL INDEX.

*  THESE STATIONS ARE NOT NWS OR FAA STATIONS AND ARE NOT UNDER
   NWS QUALITY CONTROL.

LAZ038-040-048-061>063-065>067-069-211100-
SOUTHEAST LOUISIANA

CITY           SKY/WX    TMP DP  RH WIND       PRES   REMARKS
N.O. AUDUBON     N/A     53  50  90 MISG        N/A
N.O. INTL ARPT CLOUDY    53  47  79 E7        30.12F
N.O. LAKEFRONT CLOUDY    54  47  77 E10       30.13S
N.O. DOWNTOWN* CLOUDY    52  45  76 NE6       30.12F
SLIDELL        CLOUDY    51  46  83 N5        30.12F
BATON ROUGE    CLOUDY    47  44  90 NE5       30.12F
BOOTHVILLE     CLOUDY    54  53  97 NE7       30.10S
BELLE CHASSE   CLOUDY    53  49  86 NE7       30.11F
BOGALUSA*        N/A     49  44  81 NE3       30.14F
GALLIANO*      NOT AVBL
NEW ROADS*     NOT AVBL
GONZALES*      NOT AVBL
HAMMOND*       NOT AVBL
HOUMA*         CLOUDY    51  49  92 NE6       30.12S
PORT FOURCHON* CLOUDY    55  52  88 NE14      30.12F

$$

MSZ070-080>082-211100-
SOUTHERN MISSISSIPPI

CITY           SKY/WX    TMP DP  RH WIND       PRES   REMARKS
MCCOMB         CLEAR     43  39  86 VRB3      30.13F
GULFPORT       CLOUDY    50  46  86 N6        30.11F
BILOXI         CLOUDY    51  48  91 N7        30.11F
PASCAGOULA     CLOUDY    50  48  93 N5        30.11F

$$

COASTAL OBSERVATIONS
LAKE AND NEARSHORE STATIONS

STATION/POSITION TIME  TEMP    WIND        PRES    WAVE
                       AIR SEA DIR/SP/G            HT/PER
                 (UTC) (F)     (DEG/KT/KT) (MB)    (FT/S)
PASCAGOULA       0900   51      20/  5/  9 1019.2
WAVELAND YACHT   0900   50      20/  9/ 11 1019.0
GRAND ISLE       0900   54 60   60/ 10/ 13 1019.8
SOUTHWEST PASS   0900   57                 1018.8
NEW CANAL        0900   53 56   60/ 11/ 13 1020.4
SHELL BEACH      0900   53 57   40/ 11/ 13 1020.0

OFFSHORE STATIONS

STATION/POSITION TIME  TEMP    WIND        PRES    WAVE
                       AIR SEA DIR/SP/G            HT/PER
                 (UTC) (F)     (DEG/KT/KT) (MB)    (FT/S)
64 S DAUPHIN ISL 1000   63 74   30/ 19/ 21 1017.0    5/ 6

$$




USA.gov is the U.S. government's official web portal to all federal, state and local government web resources and services.